KF4URA Weather Reports


Display with metric or nautical units.
time (UTC)temp
F
wind
direction
speed
MPH
gust
MPH
rain 1hr
in
rain 24hr
in
rain mn
in
humidity
%
barometer
mb
20260510035636 62 194 0.0 0.0 0.00 0.13 0.13 73 1007.9
20260510034626 62 194 0.0 2.0 0.00 0.13 0.13 72 1007.7
20260510033604 62 194 0.0 2.0 0.00 0.13 0.13 72 1007.7
20260510032628 63 194 0.0 1.0 0.00 0.14 0.13 72 1007.6
20260510031650 63 194 0.0 1.0 0.00 0.14 0.13 71 1007.6
20260510030633 63 194 0.0 0.0 0.00 0.14 0.13 70 1007.5
20260510022221 64 193 0.0 1.0 0.00 0.14 0.13 67 1007.3
20260510021240 65 192 0.0 1.0 0.00 0.14 0.13 67 1007.1
20260510015133 65 209 0.0 2.0 0.00 0.14 0.13 66 1006.9
20260510014103 65 209 0.0 0.0 0.00 0.14 0.13 65 1006.6
20260510013125 66 209 0.0 0.0 0.00 0.14 0.13 64 1006.5
20260510012052 66 209 0.0 0.0 0.00 0.14 0.13 63 1006.3
20260510011027 67 209 0.0 0.0 0.00 0.14 0.13 62 1006.3
20260510010041 67 209 0.0 1.0 0.00 0.14 0.13 60 1006.2
20260510005018 68 209 0.0 2.0 0.00 0.15 0.13 59 1006.1
20260510003948 68 209 0.0 0.0 0.00 0.15 0.13 59 1006.0
20260510003010 68 214 0.0 1.0 0.00 0.15 0.13 58 1005.9
20260510002011 69 214 0.0 3.0 0.00 0.15 0.13 58 1005.8
20260510000942 69 213 0.0 2.0 0.00 0.15 0.13 57 1005.6
20260509235949 70 215 0.0 1.0 0.00 0.15 0.13 56 1005.6
20260509235003 70 217 1.0 6.0 0.00 0.15 0.13 55 1005.4
20260509232840 71 269 1.0 7.0 0.00 0.15 0.13 54 1005.4
20260509231834 71 220 1.0 6.0 0.00 0.15 0.13 54 1005.4
20260509230841 71 238 1.0 7.0 0.00 0.15 0.13 54 1005.3
20260509225813 71 217 1.0 7.0 0.00 0.15 0.13 54 1005.3
20260509224827 71 221 2.0 7.0 0.00 0.15 0.13 54 1005.3
20260509223839 72 192 1.0 8.0 0.00 0.15 0.13 54 1005.2
20260509222820 72 208 2.0 8.0 0.00 0.15 0.13 52 1005.2
20260509221804 72 203 1.0 6.0 0.00 0.15 0.13 52 1005.1
20260509220749 72 180 1.0 5.0 0.00 0.15 0.13 53 1005.1
20260509215753 72 204 2.0 9.0 0.00 0.15 0.13 54 1005.1
20260509213620 72 228 1.0 9.0 0.00 0.15 0.13 55 1005.1
20260509212610 72 221 2.0 9.0 0.00 0.15 0.13 56 1005.2
20260509211627 72 213 2.0 7.0 0.00 0.15 0.13 55 1005.5
20260509210624 72 241 2.0 7.0 0.00 0.15 0.13 55 1005.3
20260509205624 72 165 1.0 5.0 0.00 0.15 0.13 56 1005.4
20260509204624 72 207 1.0 3.0 0.00 0.15 0.13 57 1005.5
20260509203624 72 211 1.0 5.0 0.00 0.15 0.13 58 1005.5
20260509201549 71 206 2.0 9.0 0.00 0.15 0.13 58 1005.7
20260509195450 70 218 2.0 8.0 0.00 0.15 0.13 59 1006.1
20260509194450 70 200 2.0 8.0 0.00 0.15 0.13 59 1006.2
20260509193501 70 215 2.0 8.0 0.00 0.15 0.13 61 1006.1
20260509192502 70 219 1.0 6.0 0.00 0.15 0.13 60 1006.1
20260509191443 70 210 1.0 4.0 0.00 0.15 0.13 59 1006.2
20260509190421 70 229 1.0 6.0 0.00 0.15 0.13 62 1006.2
20260509185348 70 228 1.0 6.0 0.00 0.15 0.13 60 1006.4
20260509184357 69 275 1.0 6.0 0.00 0.15 0.13 61 1006.4
20260509183412 69 274 1.0 6.0 0.00 0.15 0.13 62 1006.6
20260509182401 69 202 1.0 4.0 0.00 0.15 0.13 62 1006.6
20260509180256 68 207 2.0 7.0 0.00 0.15 0.13 63 1006.7
20260509175311 68 198 1.0 6.0 0.00 0.15 0.13 65 1006.8
20260509173214 67 270 1.0 8.0 0.00 0.15 0.13 66 1007.1
20260509172153 67 287 1.0 6.0 0.00 0.15 0.13 71 1007.2
20260509171147 66 210 2.0 6.0 0.00 0.15 0.13 70 1007.1
20260509170128 65 218 1.0 8.0 0.00 0.15 0.13 70 1007.3
20260509165137 65 185 1.0 8.0 0.00 0.15 0.13 69 1007.4
20260509164138 65 223 1.0 7.0 0.00 0.15 0.13 70 1007.3
20260509163130 65 177 1.0 6.0 0.00 0.15 0.13 71 1007.3
20260509161000 64 242 1.0 5.0 0.00 0.15 0.13 76 1007.2
20260509160023 63 236 1.0 5.0 0.00 0.15 0.13 76 1007.3
20260509155002 62 200 1.0 6.0 0.00 0.15 0.13 80 1007.2
20260509152841 62 194 1.0 6.0 0.00 0.15 0.13 80 1007.1
20260509151903 61 123 1.0 7.0 0.00 0.15 0.13 80 1007.2
20260509150901 62 230 1.0 7.0 0.00 0.15 0.13 80 1007.2
20260509145848 61 231 0.0 6.0 0.00 0.15 0.13 83 1007.0
20260509144844 61 250 0.0 7.0 0.00 0.15 0.13 84 1006.8
20260509143901 60 224 1.0 7.0 0.00 0.15 0.13 86 1006.6
20260509142923 59 311 1.0 4.0 0.00 0.15 0.13 87 1006.7
20260509141926 59 171 0.0 4.0 0.00 0.15 0.13 90 1006.7
20260509140929 58 204 0.0 4.0 0.00 0.15 0.13 91 1006.8
20260509135918 57 274 0.0 3.0 0.00 0.15 0.13 92 1006.9
20260509134848 57 201 0.0 3.0 0.00 0.15 0.13 93 1007.0
20260509133904 56 275 0.0 3.0 0.00 0.15 0.13 94 1007.2
20260509132835 56 213 0.0 1.0 0.00 0.15 0.13 95 1007.1
20260509130719 55 252 0.0 0.0 0.00 0.15 0.13 95 1007.1
20260509125741 55 252 0.0 0.0 0.00 0.15 0.13 95 1007.0
20260509124708 54 253 0.0 0.0 0.00 0.15 0.13 95 1007.0
20260509123731 54 253 0.0 0.0 0.00 0.15 0.13 95 1007.2
20260509122741 54 253 0.0 0.0 0.00 0.15 0.13 95 1007.4
20260509121803 53 253 0.0 0.0 0.00 0.15 0.13 95 1007.4
20260509120740 53 253 0.0 0.0 0.00 0.15 0.13 95 1007.1
20260509114631 53 253 0.0 0.0 0.00 0.14 0.12 95 1007.0
20260509113612 53 253 0.0 0.0 0.00 0.14 0.12 95 1006.7
20260509112625 53 253 0.0 0.0 0.00 0.14 0.12 94 1007.0
20260509111640 53 254 0.0 0.0 0.00 0.14 0.12 94 1007.2
20260509110657 53 254 0.0 0.0 0.00 0.14 0.12 94 1007.2
20260509105719 53 254 0.0 0.0 0.00 0.14 0.12 94 1006.9
20260509104719 53 254 0.0 0.0 0.00 0.14 0.12 94 1007.1
20260509103742 53 254 0.0 0.0 0.00 0.14 0.12 94 1007.1
20260509102802 53 254 0.0 0.0 0.00 0.14 0.12 94 1007.1
20260509101809 53 254 0.0 0.0 0.00 0.14 0.12 94 1007.2
20260509100818 53 254 0.0 1.0 0.00 0.14 0.12 94 1007.2
20260509095813 53 254 0.0 2.0 0.00 0.14 0.12 94 1007.2
20260509093713 53 214 0.0 0.0 0.00 0.12 0.10 94 1007.2
20260509091633 54 288 0.0 0.0 0.00 0.11 0.10 94 1007.2
20260509090642 54 288 0.0 0.0 0.00 0.11 0.10 94 1007.2
20260509085627 54 290 0.0 3.0 0.00 0.11 0.10 94 1007.2
20260509084621 54 219 0.0 0.0 0.00 0.11 0.10 94 1007.3
20260509083558 54 219 0.0 0.0 0.00 0.11 0.10 94 1007.3
20260509082537 54 219 0.0 0.0 0.00 0.11 0.10 94 1007.2
20260509081528 54 219 0.0 0.0 0.00 0.11 0.10 94 1007.3
20260509080541 54 211 0.0 1.0 0.00 0.11 0.10 94 1007.6
20260509075531 54 211 0.0 0.0 0.05 0.11 0.10 94 1007.6
20260509074523 54 212 0.0 0.0 0.10 0.11 0.10 94 1007.8
20260509073457 54 212 0.0 0.0 0.00 0.10 0.08 94 1007.9
20260509072442 54 212 0.0 0.0 0.00 0.10 0.08 93 1007.9
20260509071422 54 212 0.0 0.0 0.00 0.10 0.08 93 1008.0
20260509070417 54 212 0.0 0.0 0.05 0.10 0.08 93 1008.0
20260509065438 54 212 0.0 0.0 0.08 0.10 0.08 93 1008.0
20260509064429 54 212 0.0 1.0 0.06 0.08 0.06 93 1008.1
20260509063400 54 212 0.0 0.0 0.05 0.06 0.05 93 1008.2
20260509062348 54 212 0.0 0.0 0.06 0.06 0.05 92 1008.2
20260509061346 54 212 0.0 0.0 0.06 0.06 0.04 92 1008.3
20260509060350 54 213 0.0 0.0 0.00 0.05 0.03 92 1008.4
20260509055348 54 213 0.0 1.0 0.00 0.04 0.02 92 1008.6
20260509054358 54 213 0.0 0.0 0.00 0.04 0.02 92 1008.6
20260509053343 54 213 0.0 1.0 0.00 0.03 0.01 92 1008.5
20260509051250 54 286 0.0 0.0 0.00 0.03 0.01 91 1008.8
20260509050222 54 286 0.0 0.0 0.00 0.03 0.01 91 1008.7
20260509045230 54 286 0.0 0.0 0.00 0.03 0.01 91 1008.7
20260509044249 54 286 0.0 0.0 0.00 0.02 0.00 91 1008.8
20260509043227 54 287 0.0 0.0 0.00 0.02 0.00 91 1008.6
20260509042157 54 288 0.0 0.0 0.00 0.02 0.00 91 1008.9
20260509041137 54 35 0.0 0.0 0.00 0.02 0.00 91 1009.1